CW7802 Weather Reports


Display with metric or nautical units.
time (UTC)temp
F
wind
direction
speed
MPH
gust
MPH
rain 1hr
in
rain 24hr
in
rain mn
in
humidity
%
barometer
mb
20260905190539 82 360 1.0 5.0 0.00 0.00 0.00 30 865.5
20260905190038 81 360 1.0 3.0 0.00 0.00 0.00 31 865.5
20260905185537 80 360 1.0 5.0 0.00 0.00 0.00 27 865.5
20260905185037 81 219 1.0 5.0 0.00 0.00 0.00 27 865.5
20260905184545 81 219 1.0 3.0 0.00 0.00 0.00 27 865.5
20260905184036 81 219 1.0 7.0 0.00 0.00 0.00 27 865.6
20260905183536 82 219 1.0 7.0 0.00 0.00 0.00 26 865.5
20260905183043 82 219 0.0 4.0 0.00 0.00 0.00 26 865.5
20260905182535 82 219 1.0 4.0 0.00 0.00 0.00 26 865.6
20260905182038 82 219 0.0 4.0 0.00 0.00 0.00 25 865.6
20260905181535 82 219 0.0 4.0 0.00 0.00 0.00 24 865.5
20260905181034 82 219 1.0 4.0 0.00 0.00 0.00 24 865.6
20260905180534 81 206 1.0 6.0 0.00 0.00 0.00 24 865.5
20260905180030 81 205 1.0 6.0 0.00 0.00 0.00 25 865.5
20260905175529 80 219 0.0 5.0 0.00 0.00 0.00 26 865.5
20260905175028 80 218 0.0 4.0 0.00 0.00 0.00 27 865.4
20260905174527 80 218 1.0 4.0 0.00 0.00 0.00 29 865.4
20260905174026 79 218 1.0 3.0 0.00 0.00 0.00 26 865.3
20260905173524 78 218 0.0 6.0 0.00 0.00 0.00 26 865.3
20260905173023 78 218 0.0 8.0 0.00 0.00 0.00 28 865.2
20260905172521 78 218 3.0 8.0 0.00 0.00 0.00 30 865.2
20260905172020 77 360 0.0 9.0 0.00 0.00 0.00 31 865.2
20260905171520 77 360 3.0 9.0 0.00 0.00 0.00 31 865.2
20260905171018 77 221 0.0 3.0 0.00 0.00 0.00 32 865.2
20260905170516 76 221 0.0 3.0 0.00 0.00 0.00 30 865.1
20260905170015 75 220 0.0 6.0 0.00 0.00 0.00 28 865.1
20260905165512 75 360 1.0 6.0 0.00 0.00 0.00 29 865.0
20260905165011 74 360 0.0 8.0 0.00 0.00 0.00 28 865.1
20260905164514 74 360 1.0 6.0 0.00 0.00 0.00 29 865.1
20260905164008 74 360 0.0 4.0 0.00 0.00 0.00 30 865.0
20260905163507 73 360 1.0 5.0 0.00 0.00 0.00 27 865.0
20260905163006 73 360 0.0 5.0 0.00 0.00 0.00 28 865.0
20260905162504 72 360 0.0 5.0 0.00 0.00 0.00 30 864.9
20260905162004 72 360 2.0 8.0 0.00 0.00 0.00 28 864.9
20260905161506 72 360 2.0 8.0 0.00 0.00 0.00 28 864.9
20260905161005 71 360 3.0 8.0 0.00 0.00 0.00 26 864.8
20260905160503 71 360 2.0 8.0 0.00 0.00 0.00 24 864.8
20260905160101 71 360 1.0 6.0 0.00 0.00 0.00 23 864.7
20260905155600 71 360 1.0 8.0 0.00 0.00 0.00 22 864.8
20260905155057 71 360 3.0 10.0 0.00 0.00 0.00 21 864.7
20260905154557 70 360 3.0 10.0 0.00 0.00 0.00 20 864.7
20260905154056 70 360 2.0 6.0 0.00 0.00 0.00 19 864.6
20260905153553 70 360 2.0 6.0 0.00 0.00 0.00 19 864.5
20260905153053 69 360 1.0 8.0 0.00 0.00 0.00 18 864.5
20260905152552 69 360 2.0 9.0 0.00 0.00 0.00 18 864.5
20260905152050 68 360 2.0 9.0 0.00 0.00 0.00 18 864.4
20260905151550 68 360 1.0 5.0 0.00 0.00 0.00 18 864.4
20260905151050 67 360 1.0 5.0 0.00 0.00 0.00 18 864.4
20260905150548 67 360 1.0 5.0 0.00 0.00 0.00 18 864.3
20260905150052 67 360 2.0 5.0 0.00 0.00 0.00 17 864.3
20260905145546 67 360 0.0 4.0 0.00 0.00 0.00 16 864.3
20260905145045 67 360 1.0 8.0 0.00 0.00 0.00 16 864.2
20260905144546 66 360 1.0 8.0 0.00 0.00 0.00 15 864.1
20260905144043 66 360 2.0 6.0 0.00 0.00 0.00 14 864.1
20260905143545 66 360 2.0 6.0 0.00 0.00 0.00 14 864.0
20260905143042 66 360 2.0 6.0 0.00 0.00 0.00 14 864.0
20260905142545 66 360 1.0 6.0 0.00 0.00 0.00 15 864.0
20260905142039 65 360 2.0 6.0 0.00 0.00 0.00 15 863.8
20260905141539 65 360 2.0 5.0 0.00 0.00 0.00 16 863.8
20260905141039 65 360 1.0 8.0 0.00 0.00 0.00 16 863.7
20260905140538 65 360 0.0 8.0 0.00 0.00 0.00 16 863.7
20260905140045 65 360 1.0 8.0 0.00 0.00 0.00 16 863.6
20260905135541 65 360 1.0 6.0 0.00 0.00 0.00 16 863.6
20260905135037 65 360 1.0 6.0 0.00 0.00 0.00 17 863.5
20260905134546 65 360 0.0 8.0 0.00 0.00 0.00 17 863.4
20260905134040 65 360 0.0 4.0 0.00 0.00 0.00 17 863.4
20260905133536 65 360 1.0 4.0 0.00 0.00 0.00 17 863.3
20260905133036 65 360 1.0 6.0 0.00 0.00 0.00 17 863.3
20260905132535 65 360 2.0 9.0 0.00 0.00 0.00 17 863.2
20260905132036 65 360 2.0 4.0 0.00 0.00 0.00 17 863.2
20260905131535 64 360 1.0 3.0 0.00 0.00 0.00 17 863.1
20260905131035 65 360 0.0 5.0 0.00 0.00 0.00 17 863.1
20260905130535 64 360 1.0 5.0 0.00 0.00 0.00 17 863.0
20260905130040 65 360 0.0 5.0 0.00 0.00 0.00 17 863.0
20260905125537 65 360 1.0 6.0 0.00 0.00 0.00 18 862.9
20260905125034 65 360 1.0 6.0 0.00 0.00 0.00 18 862.9
20260905124534 65 360 1.0 6.0 0.00 0.00 0.00 18 862.9
20260905124033 65 360 2.0 6.0 0.00 0.00 0.00 17 862.9
20260905123534 65 360 1.0 8.0 0.00 0.00 0.00 18 862.9
20260905123034 65 360 2.0 8.0 0.00 0.00 0.00 18 862.9
20260905122533 65 360 1.0 6.0 0.00 0.00 0.00 18 862.9
20260905122033 65 360 1.0 6.0 0.00 0.00 0.00 18 862.9
20260905121539 65 360 1.0 6.0 0.00 0.00 0.00 18 862.9
20260905121036 65 360 1.0 5.0 0.00 0.00 0.00 17 862.9
20260905120533 65 360 1.0 4.0 0.00 0.00 0.00 16 862.8
20260905120032 65 360 0.0 6.0 0.00 0.00 0.00 15 862.7
20260905115534 65 360 2.0 6.0 0.00 0.00 0.00 15 862.7
20260905115032 65 360 1.0 8.0 0.00 0.00 0.00 14 862.7
20260905114537 65 360 2.0 8.0 0.00 0.00 0.00 14 862.6
20260905114031 65 360 0.0 6.0 0.00 0.00 0.00 14 862.7
20260905113530 65 360 1.0 5.0 0.00 0.00 0.00 13 862.7
20260905113031 65 360 1.0 5.0 0.00 0.00 0.00 13 862.7
20260905112531 65 360 1.0 5.0 0.00 0.00 0.00 12 862.7
20260905112031 65 360 2.0 5.0 0.00 0.00 0.00 12 862.7
20260905111534 66 360 2.0 5.0 0.00 0.00 0.00 11 862.7
20260905111031 66 360 1.0 5.0 0.00 0.00 0.00 12 862.8
20260905110528 65 360 2.0 10.0 0.00 0.00 0.00 11 862.8
20260905110030 65 360 2.0 9.0 0.00 0.00 0.00 13 862.8
20260905105527 65 360 2.0 11.0 0.00 0.00 0.00 14 862.9
20260905105028 65 360 3.0 13.0 0.00 0.00 0.00 14 862.8
20260905104528 65 360 2.0 13.0 0.00 0.00 0.00 14 862.9
20260905104026 65 360 2.0 11.0 0.00 0.00 0.00 14 862.9
20260905103525 65 360 1.0 9.0 0.00 0.00 0.00 15 862.8
20260905103025 64 360 3.0 12.0 0.00 0.00 0.00 14 862.9
20260905102524 64 360 3.0 12.0 0.00 0.00 0.00 14 862.8
20260905102023 64 360 1.0 10.0 0.00 0.00 0.00 14 862.8
20260905101523 64 360 3.0 10.0 0.00 0.00 0.00 14 862.8
20260905101021 64 360 3.0 12.0 0.00 0.00 0.00 14 862.8
20260905100519 63 360 2.0 12.0 0.00 0.00 0.00 15 862.9
20260905100018 63 360 1.0 8.0 0.00 0.00 0.00 15 862.9
20260905095516 63 360 2.0 8.0 0.00 0.00 0.00 15 863.0
20260905095019 63 360 1.0 6.0 0.00 0.00 0.00 14 863.0
20260905094515 63 360 1.0 5.0 0.00 0.00 0.00 14 863.1
20260905094014 63 360 1.0 5.0 0.00 0.00 0.00 13 863.1
20260905093514 63 360 1.0 4.0 0.00 0.00 0.00 13 863.1
20260905093014 63 360 1.0 8.0 0.00 0.00 0.00 12 863.1
20260905092513 63 360 3.0 8.0 0.00 0.00 0.00 12 863.1
20260905092015 62 360 2.0 4.0 0.00 0.00 0.00 12 863.1
20260905091512 62 360 1.0 8.0 0.00 0.00 0.00 13 863.1
20260905091011 62 360 2.0 8.0 0.00 0.00 0.00 13 863.1
20260905090511 62 360 0.0 6.0 0.00 0.00 0.00 14 863.1
20260905090010 62 360 1.0 4.0 0.00 0.00 0.00 14 863.2
20260905085509 62 360 0.0 4.0 0.00 0.00 0.00 15 863.2
20260905085009 62 360 1.0 5.0 0.00 0.00 0.00 16 863.2
20260905084507 62 360 1.0 9.0 0.00 0.00 0.00 16 863.3
20260905084007 62 360 1.0 4.0 0.00 0.00 0.00 17 863.3
20260905083506 61 360 1.0 5.0 0.00 0.00 0.00 19 863.3
20260905083007 61 360 1.0 5.0 0.00 0.00 0.00 19 863.4
20260905082505 61 360 1.0 5.0 0.00 0.00 0.00 21 863.4
20260905082004 61 360 1.0 8.0 0.00 0.00 0.00 23 863.4
20260905081502 61 360 2.0 8.0 0.00 0.00 0.00 24 863.4
20260905081002 61 360 2.0 5.0 0.00 0.00 0.00 26 863.5
20260905080503 61 360 1.0 5.0 0.00 0.00 0.00 28 863.6
20260905080101 61 360 1.0 5.0 0.00 0.00 0.00 29 863.6
20260905075600 61 360 0.0 6.0 0.00 0.00 0.00 29 863.6
20260905075059 61 360 1.0 6.0 0.00 0.00 0.00 29 863.7
20260905074600 61 360 1.0 6.0 0.00 0.00 0.00 30 863.6
20260905074100 61 360 1.0 4.0 0.00 0.00 0.00 31 863.6
20260905073559 61 360 1.0 5.0 0.00 0.00 0.00 31 863.6
20260905073059 61 360 2.0 5.0 0.00 0.00 0.00 31 863.7
20260905072559 61 360 1.0 6.0 0.00 0.00 0.00 33 863.6
20260905072058 61 360 2.0 6.0 0.00 0.00 0.00 34 863.7
20260905071558 61 360 2.0 6.0 0.00 0.00 0.00 33 863.7
20260905071057 61 360 1.0 8.0 0.00 0.00 0.00 34 863.6
20260905070601 61 360 2.0 8.0 0.00 0.00 0.00 34 863.6
20260905070055 61 360 1.0 5.0 0.00 0.00 0.00 34 863.5
20260905065558 61 360 1.0 6.0 0.00 0.00 0.00 34 863.5
20260905065055 61 360 2.0 6.0 0.00 0.00 0.00 34 863.5
20260905064555 61 360 1.0 8.0 0.00 0.00 0.00 35 863.4
20260905064059 61 360 2.0 8.0 0.00 0.00 0.00 35 863.4
20260905063558 61 360 1.0 5.0 0.00 0.00 0.00 35 863.4
20260905063054 61 360 1.0 6.0 0.00 0.00 0.00 36 863.4
20260905062557 61 360 1.0 6.0 0.00 0.00 0.00 36 863.5
20260905062054 61 360 2.0 9.0 0.00 0.00 0.00 36 863.4
20260905061556 61 360 2.0 5.0 0.00 0.00 0.00 36 863.5
20260905061053 61 360 0.0 4.0 0.00 0.00 0.00 36 863.4
20260905060554 61 360 1.0 4.0 0.00 0.00 0.00 36 863.4
20260905060054 61 360 0.0 4.0 0.00 0.00 0.00 37 863.4
20260905055553 61 360 0.0 8.0 0.00 0.00 0.00 37 863.4
20260905055053 61 360 1.0 5.0 0.00 0.00 0.00 37 863.4
20260905054555 61 360 1.0 5.0 0.00 0.00 0.00 37 863.4
20260905054055 61 360 1.0 4.0 0.00 0.00 0.00 38 863.4
20260905053553 61 360 1.0 4.0 0.00 0.00 0.00 38 863.4
20260905053057 61 360 1.0 4.0 0.00 0.00 0.00 39 863.3
20260905052555 61 360 1.0 4.0 0.00 0.00 0.00 39 863.4
20260905052052 60 360 1.0 5.0 0.00 0.00 0.00 39 863.4
20260905051552 60 360 1.0 5.0 0.00 0.00 0.00 40 863.4
20260905051052 60 360 0.0 4.0 0.00 0.00 0.00 41 863.4
20260905050552 59 360 1.0 4.0 0.00 0.00 0.00 42 863.3
20260905050052 59 360 0.0 4.0 0.00 0.00 0.00 43 863.3
20260905045551 59 360 0.0 2.0 0.00 0.00 0.00 44 863.3
20260905045051 59 360 0.0 2.0 0.00 0.00 0.00 44 863.2
20260905044551 59 360 0.0 2.0 0.00 0.00 0.00 45 863.3
20260905044051 59 360 0.0 2.0 0.00 0.00 0.00 46 863.2
20260905043551 58 360 0.0 5.0 0.00 0.00 0.00 47 863.2
20260905043051 58 360 0.0 5.0 0.00 0.00 0.00 47 863.2
20260905042552 58 360 0.0 2.0 0.00 0.00 0.00 48 863.2
20260905042050 58 360 0.0 1.0 0.00 0.00 0.00 49 863.1
20260905041553 57 360 0.0 1.0 0.00 0.00 0.00 49 863.1
20260905041051 57 360 0.0 0.0 0.00 0.00 0.00 49 863.1
20260905040551 57 360 0.0 0.0 0.00 0.00 0.00 49 863.1
20260905040049 57 360 0.0 0.0 0.00 0.00 0.00 50 863.1
20260905035549 57 360 0.0 0.0 0.00 0.00 0.00 50 863.0
20260905035049 57 360 0.0 0.0 0.00 0.00 0.00 50 863.0
20260905034557 57 360 0.0 0.0 0.00 0.00 0.00 50 863.0
20260905034047 57 360 0.0 0.0 0.00 0.00 0.00 49 863.0
20260905033547 57 360 0.0 0.0 0.00 0.00 0.00 49 862.9
20260905033047 58 360 0.0 0.0 0.00 0.00 0.00 48 862.9
20260905032548 58 360 0.0 0.0 0.00 0.00 0.00 48 862.8
20260905032049 59 360 0.0 0.0 0.00 0.00 0.00 47 862.7
20260905031547 59 360 0.0 0.0 0.00 0.00 0.00 47 862.7
20260905031049 60 360 0.0 0.0 0.00 0.00 0.00 46 862.7
20260905030546 61 360 0.0 0.0 0.00 0.00 0.00 46 862.6
20260905030046 61 360 0.0 0.0 0.00 0.00 0.00 45 862.6
20260905025545 61 360 0.0 1.0 0.00 0.00 0.00 45 862.6
20260905025049 62 360 0.0 2.0 0.00 0.00 0.00 45 862.5
20260905024545 62 360 0.0 2.0 0.00 0.00 0.00 44 862.5
20260905024045 63 360 0.0 1.0 0.00 0.00 0.00 44 862.5
20260905023545 63 360 0.0 1.0 0.00 0.00 0.00 43 862.6
20260905023046 64 360 0.0 2.0 0.00 0.00 0.00 43 862.6
20260905022547 64 360 0.0 2.0 0.00 0.00 0.00 42 862.6
20260905022044 65 360 0.0 2.0 0.00 0.00 0.00 41 862.6
20260905021545 65 360 0.0 1.0 0.00 0.00 0.00 41 862.6
20260905021043 66 209 0.0 1.0 0.00 0.00 0.00 40 862.6
20260905020543 67 209 0.0 1.0 0.00 0.00 0.00 40 862.6
20260905020042 67 209 0.0 1.0 0.00 0.00 0.00 40 862.5
20260905015542 68 360 0.0 0.0 0.00 0.00 0.00 40 862.5
20260905015042 69 209 0.0 1.0 0.00 0.00 0.00 40 862.5
20260905014541 69 209 0.0 1.0 0.00 0.00 0.00 39 862.5
20260905014041 69 360 0.0 2.0 0.00 0.00 0.00 39 862.6
20260905013542 70 209 0.0 1.0 0.00 0.00 0.00 39 862.6
20260905013100 70 360 0.0 1.0 0.00 0.00 0.00 39 862.6
20260905012542 71 360 0.0 3.0 0.00 0.00 0.00 38 862.7
20260905012041 71 360 0.0 3.0 0.00 0.00 0.00 38 862.7
20260905011540 72 360 0.0 3.0 0.00 0.00 0.00 37 862.6
20260905011040 73 360 0.0 3.0 0.00 0.00 0.00 37 862.6
20260905010541 74 360 0.0 2.0 0.00 0.00 0.00 37 862.6
20260905010042 74 208 0.0 2.0 0.00 0.00 0.00 36 862.6
20260905005540 75 360 0.0 2.0 0.00 0.00 0.00 36 862.5
20260905005041 75 360 0.0 4.0 0.00 0.00 0.00 36 862.5
20260905004556 76 360 1.0 5.0 0.00 0.00 0.00 36 862.5
20260905004040 76 360 1.0 5.0 0.00 0.00 0.00 36 862.6
20260905003539 76 360 0.0 5.0 0.00 0.00 0.00 36 862.5
20260905003039 76 360 0.0 5.0 0.00 0.00 0.00 36 862.6
20260905002539 76 360 1.0 4.0 0.00 0.00 0.00 36 862.6
20260905002043 77 360 0.0 3.0 0.00 0.00 0.00 36 862.6
20260905001539 76 209 0.0 6.0 0.00 0.00 0.00 37 862.5
20260905001038 76 209 1.0 6.0 0.00 0.00 0.00 37 862.5
20260905000538 76 209 1.0 3.0 0.00 0.00 0.00 37 862.6
20260905000047 76 209 0.0 3.0 0.00 0.00 0.00 36 862.6
20260904235537 77 209 1.0 4.0 0.00 0.00 0.00 36 862.7
20260904235037 78 360 0.0 5.0 0.00 0.00 0.00 36 862.6
20260904234537 77 209 0.0 5.0 0.00 0.00 0.00 36 862.7
20260904234041 77 209 1.0 3.0 0.00 0.00 0.00 36 862.7
20260904233537 78 209 0.0 4.0 0.00 0.00 0.00 35 862.7
20260904233037 79 209 1.0 4.0 0.00 0.00 0.00 34 862.7
20260904232537 79 209 0.0 3.0 0.00 0.00 0.00 35 862.7
20260904232036 79 208 0.0 3.0 0.00 0.00 0.00 35 862.7
20260904231536 79 360 0.0 3.0 0.00 0.00 0.00 34 862.6
20260904231036 79 360 0.0 3.0 0.00 0.00 0.00 34 862.7
20260904230536 80 208 0.0 3.0 0.00 0.00 0.00 33 862.8
20260904230035 81 208 0.0 3.0 0.00 0.00 0.00 32 862.9
20260904225534 81 209 1.0 5.0 0.00 0.00 0.00 32 862.8
20260904225038 81 209 1.0 5.0 0.00 0.00 0.00 31 862.8
20260904224534 82 209 1.0 4.0 0.00 0.00 0.00 31 862.9
20260904224036 83 209 1.0 4.0 0.00 0.00 0.00 30 862.8
20260904223534 83 209 1.0 6.0 0.00 0.00 0.00 29 862.8
20260904223033 83 209 1.0 6.0 0.00 0.00 0.00 29 862.9
20260904222534 83 209 1.0 5.0 0.00 0.00 0.00 29 862.9
20260904222033 83 360 0.0 6.0 0.00 0.00 0.00 29 863.0
20260904221533 82 360 2.0 6.0 0.00 0.00 0.00 28 862.9
20260904221033 82 360 1.0 4.0 0.00 0.00 0.00 28 862.9
20260904220533 83 360 1.0 4.0 0.00 0.00 0.00 28 863.0
20260904220032 83 360 1.0 4.0 0.00 0.00 0.00 27 863.0
20260904215531 82 360 1.0 4.0 0.00 0.00 0.00 27 863.1
20260904215031 82 360 1.0 5.0 0.00 0.00 0.00 28 863.1
20260904214531 82 360 1.0 6.0 0.00 0.00 0.00 27 863.2
20260904214031 82 360 2.0 11.0 0.00 0.00 0.00 28 863.1
20260904213533 83 360 1.0 11.0 0.00 0.00 0.00 27 863.3
20260904213038 83 360 1.0 5.0 0.00 0.00 0.00 27 863.2
20260904212529 83 360 1.0 4.0 0.00 0.00 0.00 27 863.3
20260904212028 82 360 0.0 5.0 0.00 0.00 0.00 27 863.2
20260904211528 82 217 1.0 6.0 0.00 0.00 0.00 27 863.1
20260904211030 81 217 1.0 12.0 0.00 0.00 0.00 28 863.1
20260904210528 82 217 3.0 12.0 0.00 0.00 0.00 26 863.2
20260904210027 83 224 1.0 5.0 0.00 0.00 0.00 26 863.2
20260904205527 83 223 1.0 3.0 0.00 0.00 0.00 26 863.2
20260904205025 82 223 0.0 3.0 0.00 0.00 0.00 27 863.2
20260904204525 82 223 0.0 4.0 0.00 0.00 0.00 27 863.2
20260904204026 81 223 1.0 8.0 0.00 0.00 0.00 25 863.3
20260904203525 82 223 2.0 8.0 0.00 0.00 0.00 26 863.3
20260904203031 82 223 1.0 4.0 0.00 0.00 0.00 26 863.3
20260904202527 82 223 1.0 4.0 0.00 0.00 0.00 26 863.2
20260904202027 82 223 1.0 5.0 0.00 0.00 0.00 26 863.2
20260904201523 82 223 2.0 5.0 0.00 0.00 0.00 25 863.3
20260904201022 82 360 1.0 5.0 0.00 0.00 0.00 25 863.3
20260904200521 81 360 0.0 5.0 0.00 0.00 0.00 22 863.2
20260904200020 80 360 1.0 6.0 0.00 0.00 0.00 21 863.3
20260904195524 80 360 2.0 6.0 0.00 0.00 0.00 20 863.4
20260904195020 80 360 1.0 5.0 0.00 0.00 0.00 21 863.4
20260904194518 79 360 1.0 5.0 0.00 0.00 0.00 22 863.4
20260904194017 78 360 0.0 4.0 0.00 0.00 0.00 21 863.4
20260904193517 78 360 1.0 4.0 0.00 0.00 0.00 22 863.3